Location: Kershaw
(34.5481°N, 80.5823°W)
Time: 16:58:15
(UTC+00:00)

Vanguard 1 Rocket - Pass Details

Date: 03 October 2022
Orbit: 650 x 4225 km, 34.3° (Epoch: 08 December)

Event Time Altitude Azimuth Distance (km) Brightness Sun altitude
Rises 00:11:39 0° 235° (SW) 8,438 13.2 -14.6°
Reaches altitude 10° 00:17:53 10° 233° (SW) 7,257 12.6 -15.8°
Maximum altitude 00:40:47 66° 158° (SSE) 3,070 9.8 -20.5°
Enters shadow 00:49:10 29° 87° (E) 3,437 9.7 -22.2°
Drops below altitude 10° 00:53:10 10° 80° (E) 4,247 - -23.0°
Sets 00:55:46 0° 77° (ENE) 4,902 - -23.5°
